Location: Newark
(53.4333°N, 36.0000°E)
Time: 02:02:58
(UTC+00:00)

ISS - Pass Details

Date: 29 September 2019
Orbit: 411 x 421 km, 51.6° (Epoch: 23 October)

Event Time Altitude Azimuth Distance (km) Brightness Sun altitude
Rises 16:57:17 0° 270° (W) 2,346 1.5 -15.4°
Reaches altitude 10° 16:59:23 10° 267° (W) 1,483 0.1 -15.7°
Maximum altitude 17:02:40 62° 186° (S) 467 -3.7 -16.1°
Enters shadow 17:03:33 42° 125° (SE) 599 -3.5 -16.3°
